Location: Copeville
(33.0796°N, 96.4155°W)
Time: 03:32:30
(UTC+00:00)

N. Korean satellite - Visible Passes

Search period start: 07 December 2022 00:00
Search period end: 17 December 2022 00:00
Orbit: 421 x 452 km, 97.3° (Epoch: 06 December)

Date Brightness Start Highest point End Pass type
(mag) Time Alt. Az. Time Alt. Az. Time Alt. Az.
07 Dec 9.3 10:56:08 10° NE 10:58:28 17° E 11:00:46 10° SE visible
07 Dec 7.9 12:28:32 10° NNW 12:30:48 17° WNW 12:33:02 10° WSW visible
08 Dec 6.2 11:48:38 10° N 11:51:59 66° WNW 11:55:15 10° SSW visible
08 Dec 9.5 23:46:42 10° SW 23:49:11 19° W 23:51:41 10° NW visible
09 Dec 8.5 11:10:00 10° NE 11:12:55 27° E 11:15:47 10° SSE visible
09 Dec 8.4 12:44:08 10° NW 12:45:03 11° WNW 12:45:59 10° W visible
10 Dec 6.8 12:03:07 10° N 12:06:15 38° WNW 12:09:19 10° SW visible
11 Dec 9.9 00:02:08 10° WSW 00:03:33 12° W 00:04:57 10° WNW visible
11 Dec 7.4 11:23:57 10° NNE 11:27:11 46° E 11:30:21 10° S visible
12 Dec 9.8 10:46:30 10° ENE 10:47:52 12° E 10:49:15 10° ESE visible
12 Dec 7.4 12:17:37 10° NNW 12:20:20 23° WNW 12:23:01 10° SW visible
13 Dec 6.3 11:37:57 10° NNE 11:41:17 81° E 11:44:33 10° S visible
14 Dec 9.1 10:59:32 10° NE 11:01:58 19° E 11:04:23 10° SE visible
14 Dec 8.0 12:32:15 10° NNW 12:34:15 15° WNW 12:36:15 10° WSW visible
15 Dec 6.3 11:53:00 19° N 11:55:12 58° WNW 11:58:25 10° SSW visible
15 Dec 9.6 23:49:58 10° SW 23:52:19 17° W 23:54:41 10° NW visible
16 Dec 8.3 11:13:48 16° NE 11:15:54 30° E 11:18:48 10° SSE visible
